Location: Newark
(48.5667°N, 7.8167°E)
Time: 06:56:31
(UTC+00:00)

JY1SAT - Pass Details

Date: 23 July 2021
Orbit: 568 x 591 km, 97.7° (Epoch: 26 September)

Event Time Altitude Azimuth Distance (km) Brightness Sun altitude
Exits shadow 20:39:26 16° 144° (SE) 1,552 ? -11.1°
Maximum altitude 20:42:34 52° 72° (ENE) 734 ? -11.5°
Drops below altitude 10° 20:46:38 10° 356° (N) 1,927 ? -11.9°
Sets 20:48:50 0° 351° (N) 2,836 ? -12.1°
